Weather History for Big Rapids, MI

Change the Weather History Date:

Thursday, November 24, 2011

  Actual Average Record
Temperature  
Mean Temperature 38 °F -  
Max Temperature 44 °F 40 °F 62 °F (2001)
Min Temperature 31 °F 25 °F 8 °F (1989)
Degree Days  
Heating Degree Days 28    
Moisture  
Dew Point 40 °F    
Average Humidity 95    
Maximum Humidity 100    
Minimum Humidity 84    
Precipitation  
Precipitation 0.00 in - - ()
Sea Level Pressure  
Sea Level Pressure 30.09 in    
Wind  
Wind Speed 8 mph (SW)    
Max Wind Speed 17 mph    
Max Gust Speed 24 mph    
Visibility 4 miles    
Events Fog    
Averages and records for this station are not official NWS values.
T = Trace of Precipitation, MM = Missing Value Source: NWS Daily Summary

Daily Weather History Graph

Daily Weather History Graph

Search for Another Location

Airport:

Trip Planner

Search our weather history database for the weather conditions in past years. The results will help you decide how hot, cold, wet, or windy it might be!

Date:

Astronomy

Nov. 24, 2011 Rise Set
Actual Time 7:47 AM EST 5:09 PM EST
Civil Twilight 7:15 AM EST 5:41 PM EST
Nautical Twilight 6:40 AM EST 6:16 PM EST
Astronomical Twilight 6:05 AM EST 6:50 PM EST
Moon 7:05 AM EST (11/24) 4:38 PM EST (11/24)
Length of Visible Light 10h 25m
Length of Day
9h 22m
Waning Crescent, 0% of the Moon is Illuminated
Nov 24
Waning Crescent
Nov 25
New
Dec 2
First Quarter
Dec 10
Full
Dec 17
Last Quarter

Hourly Weather History & Observations

Time (EST) Temp. Windchill Dew Point Humidity Pressure Visibility Wind Dir Wind Speed Gust Speed Precip Events Conditions
12:15 AM 40.3 °F 36.3 °F 39.4 °F 97% 30.13 in 5.0 mi SW 5.8 mph - N/A   Overcast
12:34 AM 40.5 °F 37.3 °F 39.7 °F 97% 30.13 in 5.0 mi WSW 4.6 mph - N/A   Overcast
12:55 AM 39.6 °F 37.4 °F 39.4 °F 99% 30.12 in 4.0 mi SSW 3.5 mph - N/A   Overcast
1:15 AM 38.5 °F 34.1 °F 38.5 °F 100% 30.11 in 4.0 mi South 5.8 mph - N/A   Overcast
1:34 AM 37.6 °F 34.0 °F 37.6 °F 100% 30.11 in 3.0 mi South 4.6 mph - N/A   Mostly Cloudy
1:55 AM 36.7 °F 34.1 °F 36.7 °F 100% 30.11 in 2.5 mi SSE 3.5 mph - N/A   Scattered Clouds
2:15 AM 36.0 °F 32.1 °F 36.0 °F 100% 30.11 in 2.0 mi SSW 4.6 mph - N/A   Mostly Cloudy
2:34 AM 36.9 °F 33.1 °F 36.9 °F 100% 30.12 in 3.0 mi SW 4.6 mph - N/A   Scattered Clouds
2:55 AM 37.6 °F - 37.6 °F 100% 30.12 in 3.0 mi Calm Calm - N/A   Scattered Clouds
3:15 AM 34.3 °F 30.2 °F 34.3 °F 100% 30.11 in 2.5 mi ESE 4.6 mph - N/A   Clear
3:34 AM 32.4 °F 27.9 °F 32.4 °F 100% 30.11 in 0.8 mi SE 4.6 mph - N/A   Mostly Cloudy
3:55 AM 32.5 °F - 32.5 °F 100% 30.11 in 0.2 mi Calm Calm - N/A Fog Fog
4:15 AM 31.8 °F 28.5 °F 31.8 °F 100% 30.11 in 0.2 mi South 3.5 mph - N/A Fog Fog
4:34 AM 32.0 °F - 32.0 °F 100% 30.10 in 0.2 mi Calm Calm - N/A Fog Fog
5:15 AM 36.9 °F 30.1 °F 36.9 °F 100% 30.10 in 2.5 mi SW 9.2 mph - N/A   Overcast
5:34 AM 39.4 °F 34.5 °F 39.4 °F 100% 30.10 in 3.0 mi WSW 6.9 mph - N/A   Overcast
6:15 AM 40.1 °F 34.7 °F 40.1 °F 100% 30.11 in 3.0 mi WSW 8.1 mph - N/A   Overcast
6:55 AM 39.2 °F 32.5 °F 39.2 °F 100% 30.10 in 2.5 mi WSW 10.4 mph 19.6 mph N/A   Overcast
7:15 AM 39.2 °F 33.6 °F 39.2 °F 100% 30.11 in 3.0 mi WSW 8.1 mph - N/A   Overcast
7:34 AM 39.4 °F 33.2 °F 39.4 °F 100% 30.11 in 3.0 mi WSW 9.2 mph 17.3 mph N/A   Overcast
7:55 AM 39.6 °F 32.5 °F 39.6 °F 100% 30.11 in 2.0 mi WSW 11.5 mph 16.1 mph N/A   Overcast
8:34 AM 39.6 °F 33.5 °F 39.6 °F 100% 30.13 in 1.8 mi West 9.2 mph - N/A   Overcast
8:55 AM 39.7 °F 32.7 °F 39.7 °F 100% 30.13 in 1.8 mi WSW 11.5 mph - N/A   Overcast
9:15 AM 40.1 °F 33.6 °F 40.1 °F 100% 30.14 in 2.0 mi WSW 10.4 mph - N/A   Overcast
9:34 AM 40.1 °F 35.3 °F 40.1 °F 100% 30.14 in 2.0 mi SW 6.9 mph 16.1 mph N/A   Overcast
9:55 AM 40.5 °F 33.6 °F 40.5 °F 100% 30.13 in 2.5 mi WSW 11.5 mph 19.6 mph N/A   Overcast
10:14 AM 41.0 °F 34.7 °F 40.5 °F 98% 30.13 in 3.0 mi WSW 10.4 mph 19.6 mph N/A   Overcast
10:34 AM 41.4 °F 35.2 °F 41.0 °F 99% 30.13 in 3.0 mi WSW 10.4 mph 17.3 mph N/A   Overcast
10:55 AM 41.9 °F 35.4 °F 41.0 °F 97% 30.14 in 4.0 mi SW 11.5 mph 20.7 mph N/A   Overcast
11:14 AM 42.3 °F 35.1 °F 41.2 °F 96% 30.13 in 4.0 mi WSW 13.8 mph 20.7 mph N/A   Overcast
11:35 AM 43.3 °F 38.1 °F 41.0 °F 91% 30.12 in 4.0 mi SW 9.2 mph 18.4 mph N/A   Overcast
11:55 AM 44.4 °F 38.2 °F 41.5 °F 90% 30.11 in 4.0 mi SW 12.7 mph 18.4 mph N/A   Overcast
12:14 PM 44.4 °F 37.5 °F 40.6 °F 87% 30.11 in 4.0 mi SW 15.0 mph 19.6 mph N/A   Overcast
12:35 PM 44.6 °F 37.2 °F 40.3 °F 85% 30.11 in 4.0 mi SW 17.3 mph - N/A   Haze
12:55 PM 44.2 °F 37.0 °F 40.1 °F 85% 30.09 in 5.0 mi SW 16.1 mph 21.9 mph N/A   Overcast
1:14 PM 44.6 °F 39.7 °F 40.1 °F 84% 30.09 in 5.0 mi SW 9.2 mph - N/A   Haze
1:35 PM 44.6 °F 37.4 °F 40.3 °F 85% 30.09 in 5.0 mi SW 16.1 mph 20.7 mph N/A   Haze
1:55 PM 44.8 °F 38.0 °F 40.5 °F 85% 30.07 in 5.0 mi SW 15.0 mph 20.7 mph N/A   Overcast
2:14 PM 44.8 °F 39.0 °F 40.6 °F 85% 30.07 in 5.0 mi SW 11.5 mph 18.4 mph N/A   Overcast
2:35 PM 44.6 °F 37.4 °F 41.0 °F 87% 30.07 in 5.0 mi SW 16.1 mph 24.2 mph N/A   Overcast
3:14 PM 44.6 °F 39.7 °F 41.4 °F 88% 30.07 in 4.0 mi WSW 9.2 mph 18.4 mph N/A   Overcast
3:35 PM 44.4 °F 37.5 °F 41.4 °F 89% 30.07 in 4.0 mi SW 15.0 mph 20.7 mph N/A   Overcast
3:55 PM 44.1 °F 38.6 °F 41.5 °F 91% 30.06 in 4.0 mi SW 10.4 mph 18.4 mph N/A   Overcast
4:14 PM 44.1 °F 38.6 °F 41.7 °F 91% 30.06 in 4.0 mi SW 10.4 mph 20.7 mph N/A   Overcast
4:35 PM 44.1 °F 37.7 °F 42.1 °F 93% 30.06 in 4.0 mi SW 12.7 mph 20.7 mph N/A   Overcast
4:55 PM 44.1 °F 37.1 °F 41.9 °F 92% 30.06 in 4.0 mi SW 15.0 mph 18.4 mph N/A   Overcast
5:14 PM 44.1 °F 37.1 °F 41.9 °F 92% 30.05 in 4.0 mi SW 15.0 mph 18.4 mph N/A   Overcast
5:55 PM 44.2 °F 40.3 °F 41.9 °F 91% 30.06 in 5.0 mi SW 6.9 mph 16.1 mph N/A   Overcast
6:14 PM 44.2 °F 37.6 °F 41.9 °F 91% 30.05 in 7.0 mi SSW 13.8 mph 24.2 mph N/A   Overcast
6:35 PM 44.2 °F 37.6 °F 41.9 °F 91% 30.05 in 7.0 mi SSW 13.8 mph 19.6 mph N/A   Overcast
6:55 PM 44.2 °F 38.0 °F 41.9 °F 91% 30.04 in 7.0 mi SSW 12.7 mph 16.1 mph N/A   Overcast
7:14 PM 44.6 °F 38.1 °F 41.9 °F 90% 30.04 in 7.0 mi SW 13.8 mph 21.9 mph N/A   Overcast
7:55 PM 44.6 °F 38.8 °F 42.1 °F 91% 30.04 in 7.0 mi SSW 11.5 mph 19.6 mph N/A   Overcast
8:35 PM 44.6 °F 38.8 °F 42.3 °F 91% 30.03 in 7.0 mi SSW 11.5 mph 16.1 mph N/A   Overcast
8:55 PM 44.8 °F 39.0 °F 42.3 °F 91% 30.03 in 7.0 mi SW 11.5 mph 20.7 mph N/A   Overcast
9:14 PM 44.8 °F 39.0 °F 42.3 °F 91% 30.02 in 7.0 mi SSW 11.5 mph 17.3 mph N/A   Overcast
9:35 PM 44.8 °F 38.7 °F 42.3 °F 91% 30.01 in 7.0 mi SSW 12.7 mph 18.4 mph N/A   Overcast
9:54 PM 44.8 °F 39.4 °F 42.3 °F 91% 30.01 in 7.0 mi SW 10.4 mph 16.1 mph N/A   Overcast
10:15 PM 44.8 °F 39.0 °F 42.4 °F 91% 30.01 in 7.0 mi SSW 11.5 mph 16.1 mph N/A   Overcast
10:34 PM 44.6 °F 38.8 °F 42.3 °F 91% 30.01 in 7.0 mi SSW 11.5 mph - N/A   Overcast
10:55 PM 44.8 °F 39.0 °F 42.3 °F 91% 30.00 in 7.0 mi SSW 11.5 mph - N/A   Overcast
11:14 PM 44.6 °F 39.2 °F 42.3 °F 91% 30.00 in 7.0 mi SSW 10.4 mph 17.3 mph N/A   Overcast
11:34 PM 44.8 °F 39.4 °F 42.3 °F 91% 29.99 in 7.0 mi SSW 10.4 mph 17.3 mph N/A   Overcast